Regional Weather Roundup
Issued by NWS

Home | Current Version | Previous Version | Graphics & Text | Print | Product List | Glossary On
Versions: 1 2 3 4 5 6 7 8 9 10 11 12 13 14 15 16 17 18 19 20 21 22 23 24 25 26 27 28 29 30 31 32 33 34 35 36 37 38 39 40 41 42 43 44 45 46 47 48 49 50
982
ASUS45 KCYS 261010
RWRWY

WYOMING REGIONAL WEATHER ROUNDUP
NATIONAL WEATHER SERVICE CHEYENNE WY
400 AM MDT WED JUL 26 2017

NOTE:  "FAIR" INDICATES FEW OR NO CLOUDS BELOW 12,000 FEET
WITH NO SIGNIFICANT WEATHER AND/OR OBSTRUCTIONS TO VISIBILITY.

WYZ001-261100-
YELLOWSTONE NATIONAL PARK

CITY           SKY/WX    TMP DP  RH WIND       PRES   REMARKS
LK YELLOWSTONE   N/A     42  42 100 CALM      30.40S
W YELLOWSTONE  NOT AVBL

$$
WYZ002>013-054>058-071-098>099-261100-
NORTHERN WYOMING

CITY           SKY/WX    TMP DP  RH WIND       PRES   REMARKS
JACKSON        FAIR      48  48 100 E3        30.31S
CODY           FAIR      53  50  89 W5        30.21S
GREYBULL       FAIR      57  53  86 E5        30.15S
WORLAND        FAIR      54  51  90 CALM      30.16S
SHERIDAN       CLOUDY    59  56  89 W5        30.16S
BUFFALO        CLOUDY    61  53  75 W5        30.20S
GILLETTE       CLOUDY    61  60  97 CALM      30.17S
HULETT         FAIR      63  55  77 CALM      30.18F
NEWCASTLE      DRIZZLE   63  61  94 CALM      30.19S

$$
WYZ014>020-022>026-101>103-261100-
CENTRAL WYOMING

CITY           SKY/WX    TMP DP  RH WIND       PRES   REMARKS
BIG PINEY      MOCLDY    53  51  93 NE3       30.33F
PINEDALE       FAIR      48  46  93 NW6       30.35S
DUBOIS         FAIR      46  41  81 W10       30.34F
LANDER         FAIR      58  49  72 NW6       30.23S
RIVERTON       FAIR      56  53  90 NW7       30.24S
CASPER         CLOUDY    61  57  87 N5        30.22S
DOUGLAS        CLOUDY    63  60  90 W3        30.21S

$$
WYZ021-027>030-104>119-261100-
SOUTHERN WYOMING

CITY           SKY/WX    TMP DP  RH WIND       PRES   REMARKS
EVANSTON       CLOUDY    57  54  89 E3        30.32S
KEMMERER         N/A     55  46  71 N6        30.34F
FORT BRIDGER   CLOUDY    58  51  77 CALM      30.35R
ROCK SPRINGS   MOCLDY    57  53  86 E5        30.31R
RAWLINS        CLOUDY    59  57  93 CALM      30.29S
SARATOGA       CLOUDY    57  57 100 CALM      30.30S
LARAMIE        RAIN      57  56  96 CALM      30.31R FOG
CHEYENNE       CLOUDY    62  57  83 N10       30.24S
TORRINGTON     CLOUDY    65  57  75 N15       30.13R
PINE BLUFFS    CLOUDY    64  57  77 N16       30.18S

$$




USA.gov is the U.S. government's official web portal to all federal, state and local government web resources and services.